BEIDOU-3 M18 (C37)

Last updated on Jan. 19, 2020, 4:38 a.m. UTC

1 43707U 18093B   20018.38225486  .00000015  00000-0  00000-0 0  9997
2 43707  54.7291 262.1409 0008447 296.7423 323.4815  1.86232054  7915
UTC
Height (km)
Latitude
Longitude
Inclination
Orbital Period
UTC large
Height (km)
Speed (km/s)
/
Latitude / Longitude
Inclination (degrees)
Orbital Period (minutes)
Azimuth
Elevation
Range (km)
Doppler Factor
iOS Compass Heading
iOS Angle

Next 30 passes for location: Hong Kong

Rise time Rise Azimuth (degrees) Set time Set Azimuth (degrees) Duration Max altitude (degrees)

No matching passes for this satellites